WE0DX-1 Weather Reports


Display with metric or nautical units.
time (UTC)temp
F
wind
direction
speed
MPH
gust
MPH
rain 1hr
in
rain 24hr
in
rain mn
in
humidity
%
barometer
mb
20260831210647 99 17 0.0 1.0 0.00 0.00 0.00 40 1013.1
20260831210144 99 134 0.0 0.0 0.00 0.00 0.00 39 1012.9
20260831205642 98 348 0.0 0.0 0.00 0.00 0.00 41 1013.1
20260831205140 98 124 0.0 1.0 0.00 0.00 0.00 41 1013.2
20260831204639 99 51 0.0 0.0 0.00 0.00 0.00 42 1013.3
20260831204137 99 110 0.0 2.0 0.00 0.00 0.00 41 1013.3
20260831203632 98 220 1.0 2.0 0.00 0.00 0.00 42 1013.2
20260831203131 99 319 1.0 1.0 0.00 0.00 0.00 43 1013.3
20260831202630 99 130 1.0 1.0 0.00 0.00 0.00 41 1013.3
20260831202125 98 131 0.0 0.0 0.00 0.00 0.00 42 1013.3
20260831201624 99 252 2.0 3.0 0.00 0.00 0.00 41 1013.3
20260831201120 98 163 0.0 0.0 0.00 0.00 0.00 42 1013.3
20260831200616 98 226 1.0 2.0 0.00 0.00 0.00 42 1013.3
20260831200110 98 208 0.0 7.0 0.00 0.00 0.00 41 1013.3
20260831195606 98 208 0.0 3.0 0.00 0.00 0.00 41 1013.3
20260831195101 98 203 3.0 6.0 0.00 0.00 0.00 41 1013.3
20260831194556 99 178 0.0 1.0 0.00 0.00 0.00 40 1013.3
20260831194055 98 194 0.0 3.0 0.00 0.00 0.00 42 1013.3
20260831193551 98 163 0.0 0.0 0.00 0.00 0.00 41 1013.3
20260831193046 98 106 0.0 1.0 0.00 0.00 0.00 43 1013.2
20260831192541 98 170 0.0 0.0 0.00 0.00 0.00 42 1013.3
20260831192036 97 150 0.0 1.0 0.00 0.00 0.00 42 1013.4
20260831191532 97 208 0.0 0.0 0.00 0.00 0.00 44 1013.5
20260831191028 96 169 0.0 6.0 0.00 0.00 0.00 42 1013.6
20260831190523 97 173 2.0 2.0 0.00 0.00 0.00 41 1013.7
20260831190021 97 215 1.0 2.0 0.00 0.00 0.00 43 1013.6
20260831185518 96 128 0.0 0.0 0.00 0.00 0.00 43 1013.4
20260831185013 96 147 0.0 1.0 0.00 0.00 0.00 43 1013.8
20260831184507 95 151 1.0 3.0 0.00 0.00 0.00 45 1013.8
20260831184002 95 166 1.0 2.0 0.00 0.00 0.00 43 1013.7
20260831183501 95 143 0.0 0.0 0.00 0.00 0.00 45 1013.9
20260831182955 95 150 0.0 5.0 0.00 0.00 0.00 46 1013.9
20260831182450 96 235 2.0 6.0 0.00 0.00 0.00 45 1013.9
20260831181945 95 130 0.0 0.0 0.00 0.00 0.00 47 1014.0
20260831181441 95 122 0.0 0.0 0.00 0.00 0.00 46 1014.0
20260831180935 94 185 2.0 6.0 0.00 0.00 0.00 47 1014.2
20260831180429 94 99 0.0 0.0 0.00 0.00 0.00 47 1014.1
20260831175929 94 103 0.0 0.0 0.00 0.00 0.00 48 1014.2
20260831175425 93 130 0.0 5.0 0.00 0.00 0.00 48 1014.0
20260831174921 93 170 1.0 3.0 0.00 0.00 0.00 48 1014.0
20260831174416 92 194 0.0 3.0 0.00 0.00 0.00 48 1014.0
20260831173916 92 161 0.0 2.0 0.00 0.00 0.00 48 1014.0
20260831173415 92 106 2.0 6.0 0.00 0.00 0.00 49 1014.3
20260831172910 92 197 3.0 5.0 0.00 0.00 0.00 48 1014.0
20260831172406 92 199 1.0 2.0 0.00 0.00 0.00 50 1014.3
20260831171901 92 168 0.0 0.0 0.00 0.00 0.00 50 1014.2
20260831171357 92 143 5.0 7.0 0.00 0.00 0.00 49 1014.3
20260831170854 91 115 1.0 2.0 0.00 0.00 0.00 49 1014.3
20260831170349 93 203 0.0 0.0 0.00 0.00 0.00 47 1014.4
20260831165846 92 130 0.0 0.0 0.00 0.00 0.00 49 1014.3
20260831165342 91 226 1.0 2.0 0.00 0.00 0.00 49 1014.6
20260831164838 91 155 0.0 0.0 0.00 0.00 0.00 51 1014.6
20260831164334 90 218 1.0 2.0 0.00 0.00 0.00 51 1014.4
20260831163829 90 109 0.0 0.0 0.00 0.00 0.00 54 1014.5
20260831163325 88 81 0.0 0.0 0.00 0.00 0.00 57 1014.4
20260831162823 88 152 0.0 0.0 0.00 0.00 0.00 54 1014.5
20260831162319 88 131 0.0 1.0 0.00 0.00 0.00 54 1014.6
20260831161817 88 144 1.0 3.0 0.00 0.00 0.00 54 1014.6
20260831161314 87 116 0.0 2.0 0.00 0.00 0.00 54 1014.5
20260831160813 87 170 0.0 1.0 0.00 0.00 0.00 54 1014.6
20260831160308 87 215 0.0 6.0 0.00 0.00 0.00 55 1014.5
20260831155803 87 236 1.0 3.0 0.00 0.00 0.00 54 1014.6
20260831155258 87 130 0.0 0.0 0.00 0.00 0.00 56 1014.5
20260831154754 87 164 1.0 3.0 0.00 0.00 0.00 53 1014.5
20260831154250 88 211 2.0 5.0 0.00 0.00 0.00 52 1014.5
20260831153748 88 231 2.0 3.0 0.00 0.00 0.00 53 1014.4
20260831153244 87 142 3.0 3.0 0.00 0.00 0.00 54 1014.5
20260831152739 87 187 2.0 3.0 0.00 0.00 0.00 54 1014.4
20260831152235 87 172 3.0 3.0 0.00 0.00 0.00 54 1014.5
20260831151730 86 77 0.0 0.0 0.00 0.00 0.00 56 1014.2
20260831151229 86 113 0.0 2.0 0.00 0.00 0.00 56 1014.2
20260831150724 85 133 0.0 2.0 0.00 0.00 0.00 57 1014.5
20260831150219 84 192 1.0 3.0 0.00 0.00 0.00 58 1014.3
20260831145714 85 221 4.0 7.0 0.00 0.00 0.00 56 1014.4
20260831145210 85 170 2.0 11.0 0.00 0.00 0.00 57 1014.2
20260831144706 85 117 1.0 3.0 0.00 0.00 0.00 58 1014.3
20260831144202 84 205 0.0 2.0 0.00 0.00 0.00 58 1014.6
20260831143701 84 159 1.0 3.0 0.00 0.00 0.00 58 1014.4
20260831143156 83 164 2.0 8.0 0.00 0.00 0.00 59 1014.5
20260831142652 83 114 1.0 2.0 0.00 0.00 0.00 59 1014.5
20260831142148 82 160 2.0 3.0 0.00 0.00 0.00 59 1014.8
20260831141647 82 184 1.0 3.0 0.00 0.00 0.00 60 1014.5
20260831141142 81 156 3.0 8.0 0.00 0.00 0.00 60 1014.7
20260831140641 81 101 2.0 5.0 0.00 0.00 0.00 62 1014.7
20260831140136 81 251 0.0 7.0 0.00 0.00 0.00 62 1014.7
20260831135634 80 189 2.0 3.0 0.00 0.00 0.00 63 1014.7
20260831135130 80 181 1.0 3.0 0.00 0.00 0.00 62 1014.6
20260831134626 80 213 2.0 5.0 0.00 0.00 0.00 62 1014.5
20260831134121 80 120 1.0 3.0 0.00 0.00 0.00 63 1014.5
20260831133619 80 154 0.0 2.0 0.00 0.00 0.00 64 1014.3
20260831133115 80 174 0.0 1.0 0.00 0.00 0.00 63 1014.4
20260831132611 80 114 5.0 8.0 0.00 0.00 0.00 63 1014.5
20260831132109 80 164 0.0 1.0 0.00 0.00 0.00 63 1014.7
20260831131604 80 211 3.0 6.0 0.00 0.00 0.00 63 1014.4
20260831131101 80 116 1.0 2.0 0.00 0.00 0.00 63 1014.3
20260831130555 79 114 0.0 0.0 0.00 0.00 0.00 64 1014.4
20260831130051 79 154 0.0 0.0 0.00 0.00 0.00 63 1014.3
20260831125544 79 158 0.0 0.0 0.00 0.00 0.00 63 1014.2
20260831125040 79 206 0.0 0.0 0.00 0.00 0.00 63 1014.6
20260831124536 79 107 0.0 0.0 0.00 0.00 0.00 63 1014.6
20260831124032 78 82 0.0 0.0 0.00 0.00 0.00 63 1014.3
20260831123531 79 112 0.0 0.0 0.00 0.00 0.00 64 1014.2
20260831123025 79 127 0.0 0.0 0.00 0.00 0.00 63 1014.0
20260831122525 79 122 0.0 0.0 0.00 0.00 0.00 63 1014.2
20260831122020 79 106 0.0 0.0 0.00 0.00 0.00 62 1014.3
20260831121515 79 104 0.0 0.0 0.00 0.00 0.00 62 1014.1
20260831121011 79 98 0.0 0.0 0.00 0.00 0.00 62 1014.0
20260831120510 79 184 0.0 0.0 0.00 0.00 0.00 62 1014.0
20260831120006 79 108 0.0 0.0 0.00 0.00 0.00 62 1013.7
20260831115502 79 127 0.0 0.0 0.00 0.00 0.00 62 1013.7
20260831114957 79 114 0.0 0.0 0.00 0.00 0.00 62 1013.7
20260831114455 79 109 0.0 0.0 0.00 0.00 0.00 61 1013.6
20260831113951 79 132 0.0 0.0 0.00 0.00 0.00 61 1013.7
20260831113450 79 113 0.0 0.0 0.00 0.00 0.00 61 1013.6
20260831112946 79 143 0.0 0.0 0.00 0.00 0.00 61 1013.6
20260831112440 80 129 0.0 0.0 0.00 0.00 0.00 60 1013.6
20260831111935 80 152 0.0 2.0 0.00 0.00 0.00 60 1013.7
20260831111431 80 97 0.0 0.0 0.00 0.00 0.00 59 1013.4
20260831110927 80 133 2.0 2.0 0.00 0.00 0.00 59 1013.5
20260831110422 80 201 1.0 2.0 0.00 0.00 0.00 59 1013.3
20260831105920 80 148 0.0 0.0 0.00 0.00 0.00 59 1013.7
20260831105416 80 114 0.0 0.0 0.00 0.00 0.00 59 1013.4
20260831104911 80 186 0.0 0.0 0.00 0.00 0.00 58 1013.3
20260831104407 80 116 0.0 0.0 0.00 0.00 0.00 58 1013.2
20260831103903 80 177 0.0 1.0 0.00 0.00 0.00 58 1013.2
20260831103358 80 113 0.0 0.0 0.00 0.00 0.00 58 1013.4
20260831102853 81 96 0.0 3.0 0.00 0.00 0.00 58 1013.3
20260831102352 80 199 0.0 0.0 0.00 0.00 0.00 58 1013.1
20260831101848 81 135 0.0 0.0 0.00 0.00 0.00 58 1013.0
20260831101348 81 142 1.0 2.0 0.00 0.00 0.00 57 1013.1
20260831100844 81 137 0.0 2.0 0.00 0.00 0.00 57 1013.0
20260831100340 81 122 0.0 2.0 0.00 0.00 0.00 56 1012.9
20260831095840 81 183 3.0 5.0 0.00 0.00 0.00 56 1012.8
20260831095339 82 129 1.0 5.0 0.00 0.00 0.00 56 1012.7
20260831094835 82 94 0.0 5.0 0.00 0.00 0.00 56 1012.8
20260831094330 82 189 0.0 0.0 0.00 0.00 0.00 55 1012.7
20260831093826 82 107 1.0 6.0 0.00 0.00 0.00 55 1012.4
20260831093321 82 121 3.0 6.0 0.00 0.00 0.00 55 1012.8
20260831092817 82 105 1.0 5.0 0.00 0.00 0.00 55 1012.7
20260831092313 82 135 6.0 9.0 0.00 0.00 0.00 55 1012.5
20260831091808 82 155 3.0 5.0 0.00 0.00 0.00 54 1012.7
20260831091303 82 203 1.0 1.0 0.00 0.00 0.00 54 1012.8
20260831090758 83 128 0.0 0.0 0.00 0.00 0.00 54 1012.8
20260831090255 83 154 3.0 8.0 0.00 0.00 0.00 53 1012.7
20260831085750 83 127 2.0 9.0 0.00 0.00 0.00 54 1012.7
20260831085245 83 216 3.0 9.0 0.00 0.00 0.00 53 1012.5
20260831084740 83 125 0.0 0.0 0.00 0.00 0.00 54 1012.4
20260831084236 83 151 1.0 3.0 0.00 0.00 0.00 53 1012.7
20260831083732 83 180 1.0 7.0 0.00 0.00 0.00 52 1012.5
20260831083227 83 126 0.0 5.0 0.00 0.00 0.00 52 1012.4
20260831082726 84 183 2.0 9.0 0.00 0.00 0.00 52 1012.4
20260831082221 84 173 0.0 0.0 0.00 0.00 0.00 51 1012.8
20260831081717 84 100 0.0 0.0 0.00 0.00 0.00 51 1012.7
20260831081207 84 122 0.0 0.0 0.00 0.00 0.00 50 1012.5
20260831080703 84 117 0.0 0.0 0.00 0.00 0.00 50 1012.7
20260831080202 85 126 0.0 1.0 0.00 0.00 0.00 50 1012.3
20260831075658 85 95 0.0 0.0 0.00 0.00 0.00 49 1012.4
20260831075154 85 159 3.0 7.0 0.00 0.00 0.00 49 1012.3
20260831074653 85 109 1.0 8.0 0.00 0.00 0.00 48 1012.2
20260831074147 86 132 1.0 5.0 0.00 0.00 0.00 48 1012.3
20260831073642 86 98 0.0 6.0 0.00 0.00 0.00 48 1012.3
20260831073141 86 104 0.0 0.0 0.00 0.00 0.00 48 1012.0
20260831072637 86 119 0.0 2.0 0.00 0.00 0.00 47 1012.2
20260831072133 86 194 0.0 0.0 0.00 0.00 0.00 47 1012.1
20260831071632 86 142 0.0 1.0 0.00 0.00 0.00 47 1012.2
20260831071127 86 119 0.0 0.0 0.00 0.00 0.00 47 1012.1
20260831070626 86 117 0.0 1.0 0.00 0.00 0.00 47 1012.2
20260831070116 86 134 0.0 0.0 0.00 0.00 0.00 46 1011.9
20260831065614 86 163 0.0 0.0 0.00 0.00 0.00 46 1012.2
20260831065108 86 149 0.0 0.0 0.00 0.00 0.00 46 1012.2
20260831064604 86 128 0.0 0.0 0.00 0.00 0.00 46 1012.0
20260831064059 87 106 0.0 0.0 0.00 0.00 0.00 46 1012.2
20260831063554 87 170 0.0 0.0 0.00 0.00 0.00 46 1011.9
20260831063049 87 143 0.0 5.0 0.00 0.00 0.00 46 1011.9
20260831062544 87 119 0.0 0.0 0.00 0.00 0.00 46 1011.9
20260831062043 87 114 0.0 0.0 0.00 0.00 0.00 46 1011.9
20260831061541 87 128 5.0 8.0 0.00 0.00 0.00 46 1011.7
20260831061038 87 183 1.0 6.0 0.00 0.00 0.00 46 1011.8
20260831060532 87 109 0.0 0.0 0.00 0.00 0.00 45 1012.0
20260831060027 87 154 3.0 5.0 0.00 0.00 0.00 45 1011.9
20260831055522 87 149 3.0 3.0 0.00 0.00 0.00 45 1011.9
20260831055017 88 104 0.0 6.0 0.00 0.00 0.00 45 1011.9
20260831054512 88 97 1.0 8.0 0.00 0.00 0.00 45 1011.8
20260831054011 88 139 3.0 6.0 0.00 0.00 0.00 45 1011.5
20260831053509 88 119 0.0 0.0 0.00 0.00 0.00 44 1011.7
20260831053004 88 61 1.0 3.0 0.00 0.00 0.00 45 1011.6
20260831052457 88 144 0.0 0.0 0.00 0.00 0.00 44 1011.6
20260831051956 89 120 3.0 7.0 0.00 0.00 0.00 44 1011.5
20260831051454 89 149 3.0 11.0 0.00 0.00 0.00 44 1011.5
20260831050949 89 163 0.0 0.0 0.00 0.00 0.00 44 1011.4
20260831050449 89 122 2.0 7.0 0.00 0.00 0.00 44 1011.6
20260831045947 89 224 1.0 2.0 0.00 0.00 0.00 44 1011.6
20260831045447 89 159 0.0 0.0 0.00 0.00 0.00 44 1011.5
20260831044942 89 150 0.0 0.0 0.00 0.00 0.00 44 1011.7
20260831044437 89 172 2.0 6.0 0.00 0.00 0.00 44 1011.5
20260831043932 89 154 4.0 9.0 0.00 0.00 0.00 44 1011.5
20260831043427 89 141 1.0 8.0 0.00 0.00 0.00 45 1011.5
20260831042922 89 174 0.0 0.0 0.00 0.00 0.00 45 1011.5
20260831042421 89 160 3.0 7.0 0.00 0.00 0.00 45 1011.5
20260831041911 89 132 2.0 9.0 0.00 0.00 0.00 45 1011.6
20260831041410 89 95 0.0 5.0 0.00 0.00 0.00 45 1011.3
20260831040906 89 129 3.0 6.0 0.00 0.00 0.00 45 1011.7
20260831040400 89 145 2.0 7.0 0.00 0.00 0.00 45 1011.4
20260831035858 89 165 0.0 0.0 0.00 0.00 0.00 45 1011.5
20260831035357 89 143 4.0 6.0 0.00 0.00 0.00 44 1011.5
20260831034852 90 114 0.0 0.0 0.00 0.00 0.00 45 1011.5
20260831034347 90 127 0.0 0.0 0.00 0.00 0.00 44 1011.5
20260831033843 90 125 0.0 0.0 0.00 0.00 0.00 45 1011.5
20260831033342 90 178 0.0 1.0 0.00 0.00 0.00 44 1011.3
20260831032837 90 155 3.0 6.0 0.00 0.00 0.00 45 1011.4
20260831032332 90 142 6.0 11.0 0.00 0.00 0.00 44 1011.4
20260831031828 90 130 0.0 5.0 0.00 0.00 0.00 44 1011.5
20260831031327 90 143 5.0 11.0 0.00 0.00 0.00 44 1011.6
20260831030822 90 173 0.0 0.0 0.00 0.00 0.00 44 1011.4
20260831030320 90 107 0.0 0.0 0.00 0.00 0.00 44 1011.3
20260831025820 90 114 3.0 3.0 0.00 0.00 0.00 45 1011.5
20260831025314 90 119 3.0 10.0 0.00 0.00 0.00 45 1011.5
20260831024810 90 174 7.0 8.0 0.00 0.00 0.00 45 1011.3
20260831024309 90 141 4.0 7.0 0.00 0.00 0.00 45 1011.2
20260831023808 91 149 4.0 10.0 0.00 0.00 0.00 44 1011.3
20260831023306 91 111 1.0 8.0 0.00 0.00 0.00 45 1011.2
20260831022802 91 153 3.0 6.0 0.00 0.00 0.00 45 1011.3
20260831022300 91 129 0.0 0.0 0.00 0.00 0.00 44 1011.1
20260831021755 91 114 3.0 8.0 0.00 0.00 0.00 44 1011.2
20260831021250 91 148 6.0 9.0 0.00 0.00 0.00 44 1011.0
20260831020747 91 180 3.0 6.0 0.00 0.00 0.00 44 1010.9
20260831020245 91 74 5.0 6.0 0.00 0.00 0.00 44 1010.8
20260831015741 91 131 3.0 9.0 0.00 0.00 0.00 44 1011.0
20260831015237 91 183 0.0 0.0 0.00 0.00 0.00 44 1010.9
20260831014731 92 148 3.0 6.0 0.00 0.00 0.00 43 1010.7
20260831014226 91 158 3.0 9.0 0.00 0.00 0.00 44 1010.6
20260831013722 92 76 4.0 11.0 0.00 0.00 0.00 43 1010.4
20260831013221 92 86 0.0 9.0 0.00 0.00 0.00 43 1010.4
20260831012716 92 144 3.0 7.0 0.00 0.00 0.00 43 1010.4
20260831012212 92 117 0.0 0.0 0.00 0.00 0.00 43 1010.4
20260831011710 92 138 0.0 0.0 0.00 0.00 0.00 43 1010.6
20260831011207 93 175 0.0 0.0 0.00 0.00 0.00 43 1010.2
20260831010702 93 106 0.0 0.0 0.00 0.00 0.00 43 1010.3
20260831010157 93 146 0.0 3.0 0.00 0.00 0.00 43 1010.3
20260831005657 93 131 0.0 0.0 0.00 0.00 0.00 43 1010.1
20260831005153 93 155 0.0 0.0 0.00 0.00 0.00 42 1010.2
20260831004648 93 114 0.0 0.0 0.00 0.00 0.00 42 1010.1
20260831004144 94 108 3.0 5.0 0.00 0.00 0.00 42 1010.1
20260831003640 94 118 5.0 7.0 0.00 0.00 0.00 41 1010.2
20260831003135 94 106 1.0 3.0 0.00 0.00 0.00 42 1010.2
20260831002634 94 119 3.0 3.0 0.00 0.00 0.00 41 1010.1
20260831002129 94 118 0.0 0.0 0.00 0.00 0.00 41 1010.2
20260831001625 95 119 3.0 5.0 0.00 0.00 0.00 40 1010.3
20260831001120 95 130 0.0 0.0 0.00 0.00 0.00 41 1010.2
20260831000617 95 130 1.0 8.0 0.00 0.00 0.00 40 1009.9
20260831000117 95 97 3.0 8.0 0.00 0.00 0.00 40 1010.1
20260830235616 95 102 0.0 0.0 0.00 0.00 0.00 40 1010.2
20260830235111 95 157 0.0 0.0 0.00 0.00 0.00 40 1010.0
20260830234606 96 155 0.0 0.0 0.00 0.00 0.00 41 1010.0
20260830234101 96 189 0.0 0.0 0.00 0.00 0.00 40 1009.9
20260830233556 96 155 0.0 0.0 0.00 0.00 0.00 40 1010.2
20260830233052 96 144 0.0 0.0 0.00 0.00 0.00 40 1010.0
20260830232548 96 173 7.0 8.0 0.00 0.00 0.00 40 1009.8
20260830232044 96 167 5.0 8.0 0.00 0.00 0.00 40 1010.0
20260830231540 96 130 0.0 2.0 0.00 0.00 0.00 40 1009.8
20260830231038 97 171 5.0 7.0 0.00 0.00 0.00 39 1009.8
20260830230534 97 133 2.0 6.0 0.00 0.00 0.00 39 1009.9
20260830230029 97 122 1.0 10.0 0.00 0.00 0.00 39 1009.9
20260830225524 97 110 0.0 1.0 0.00 0.00 0.00 40 1009.9
20260830225024 97 123 4.0 6.0 0.00 0.00 0.00 39 1009.8
20260830224522 97 127 6.0 8.0 0.00 0.00 0.00 38 1010.0
20260830224019 97 148 1.0 10.0 0.00 0.00 0.00 38 1009.9
20260830223516 97 184 5.0 7.0 0.00 0.00 0.00 39 1010.0
20260830223010 97 210 2.0 6.0 0.00 0.00 0.00 39 1009.9
20260830222504 97 140 5.0 7.0 0.00 0.00 0.00 40 1009.8
20260830222000 97 261 2.0 3.0 0.00 0.00 0.00 41 1009.9
20260830221455 98 144 3.0 8.0 0.00 0.00 0.00 40 1010.0
20260830220946 98 149 0.0 3.0 0.00 0.00 0.00 40 1009.9
20260830220445 98 132 0.0 6.0 0.00 0.00 0.00 40 1010.0
20260830215942 97 130 3.0 5.0 0.00 0.00 0.00 39 1010.0
20260830215438 98 135 4.0 9.0 0.00 0.00 0.00 40 1010.1
20260830214932 98 155 2.0 3.0 0.00 0.00 0.00 40 1010.1
20260830214428 98 55 3.0 7.0 0.00 0.00 0.00 41 1010.2
20260830213923 98 153 0.0 1.0 0.00 0.00 0.00 41 1010.2
20260830213418 97 153 4.0 11.0 0.00 0.00 0.00 40 1010.2
20260830212914 98 119 8.0 11.0 0.00 0.00 0.00 41 1010.2
20260830212409 98 213 3.0 8.0 0.00 0.00 0.00 40 1010.6
20260830211908 98 123 5.0 7.0 0.00 0.00 0.00 41 1010.1
20260830211403 98 160 2.0 9.0 0.00 0.00 0.00 41 1010.2